TimeEST,TemperatureF,Dew PointF,Humidity,Sea Level PressureIn,VisibilityMPH,Wind Direction,Wind SpeedMPH,Gust SpeedMPH,PrecipitationIn,Events,Conditions,WindDirDegrees,DateUTC
12:17 AM,30.2,28.4,93,29.89,4.0,North,5.8,-,0.00,Snow,Light Snow,350,2013-02-25 05:17:00
12:56 AM,30.0,27.0,88,29.95,4.0,North,5.8,-,0.00,Snow,Light Snow,350,2013-02-25 05:56:00
1:37 AM,28.4,26.6,93,29.92,6.0,NW,4.6,-,0.00,Snow,Light Snow,320,2013-02-25 06:37:00
1:51 AM,28.4,28.4,100,29.92,6.0,NNW,3.5,-,0.00,Snow,Light Snow,330,2013-02-25 06:51:00
1:56 AM,28.9,28.0,96,29.97,6.0,NNW,4.6,-,0.00,Snow,Light Snow,330,2013-02-25 06:56:00
2:56 AM,30.0,27.0,88,29.98,10.0,North,3.5,-,0.00,,Overcast,350,2013-02-25 07:56:00
3:56 AM,30.0,27.0,88,30.00,10.0,North,3.5,-,N/A,,Overcast,360,2013-02-25 08:56:00
4:56 AM,30.0,27.0,88,30.03,10.0,NW,3.5,-,N/A,,Overcast,320,2013-02-25 09:56:00
5:56 AM,28.9,27.0,92,30.05,10.0,Calm,Calm,-,N/A,,Overcast,0,2013-02-25 10:56:00
6:53 AM,28.4,26.6,93,30.02,10.0,Calm,Calm,-,N/A,,Overcast,0,2013-02-25 11:53:00
6:56 AM,28.9,27.0,92,30.07,10.0,Calm,Calm,-,N/A,,Mostly Cloudy,0,2013-02-25 11:56:00
7:15 AM,28.4,26.6,93,30.02,10.0,Calm,Calm,-,N/A,,Overcast,0,2013-02-25 12:15:00
7:16 AM,28.4,26.6,93,30.02,10.0,Calm,Calm,-,N/A,,Overcast,0,2013-02-25 12:16:00
7:56 AM,30.9,28.0,89,30.09,10.0,West,4.6,-,N/A,,Overcast,270,2013-02-25 12:56:00
8:04 AM,30.2,28.4,93,30.05,10.0,Calm,Calm,-,N/A,,Overcast,0,2013-02-25 13:04:00
8:56 AM,32.0,28.9,88,30.11,10.0,Calm,Calm,-,N/A,,Overcast,0,2013-02-25 13:56:00
9:56 AM,34.0,28.9,82,30.13,10.0,Calm,Calm,-,N/A,,Overcast,0,2013-02-25 14:56:00
10:56 AM,34.0,28.9,82,30.14,10.0,Calm,Calm,-,N/A,,Overcast,0,2013-02-25 15:56:00
11:56 AM,35.1,28.0,76,30.14,10.0,Calm,Calm,-,N/A,,Overcast,0,2013-02-25 16:56:00
12:56 PM,36.0,30.0,79,30.14,10.0,WNW,5.8,-,N/A,,Mostly Cloudy,290,2013-02-25 17:56:00
1:56 PM,37.0,28.9,73,30.17,10.0,Calm,Calm,-,N/A,,Overcast,0,2013-02-25 18:56:00
2:56 PM,37.0,28.9,73,30.18,10.0,NW,3.5,-,N/A,,Overcast,310,2013-02-25 19:56:00
3:08 PM,37.4,28.4,70,30.14,10.0,WNW,3.5,-,N/A,,Overcast,300,2013-02-25 20:08:00
3:46 PM,37.4,28.4,70,30.14,10.0,NW,4.6,-,N/A,,Mostly Cloudy,320,2013-02-25 20:46:00
3:56 PM,37.0,28.9,73,30.19,10.0,NW,5.8,-,N/A,,Mostly Cloudy,320,2013-02-25 20:56:00
4:56 PM,36.0,30.0,79,30.20,10.0,Calm,Calm,-,N/A,,Overcast,0,2013-02-25 21:56:00
5:56 PM,36.0,30.0,79,30.22,10.0,Calm,Calm,-,N/A,,Overcast,0,2013-02-25 22:56:00
6:56 PM,34.0,30.0,85,30.23,10.0,WSW,3.5,-,N/A,,Overcast,240,2013-02-25 23:56:00
7:56 PM,33.1,30.9,92,30.25,10.0,Calm,Calm,-,N/A,,Overcast,0,2013-02-26 00:56:00
8:56 PM,33.1,30.9,92,30.26,10.0,Calm,Calm,-,N/A,,Overcast,0,2013-02-26 01:56:00
9:56 PM,34.0,30.9,89,30.25,10.0,Calm,Calm,-,N/A,,Overcast,0,2013-02-26 02:56:00
10:56 PM,32.0,30.0,92,30.26,10.0,Calm,Calm,-,N/A,,Overcast,0,2013-02-26 03:56:00
11:56 PM,32.0,30.0,92,30.28,9.0,Calm,Calm,-,N/A,,Overcast,0,2013-02-26 04:56:00